Location: La Trinit�
(48.1620°N, 3.4512°W)
Time: 16:10:43
(UTC+00:00)

USA 306 - Pass Details

Date: 08 May 2021
Orbit: 565 x 575 km, 54.0° (Epoch: 11 May)

Event Time Altitude Azimuth Distance (km) Brightness Sun altitude
Rises 22:15:22 0° 298° (WNW) 2,774 7.4 -19.6°
Reaches altitude 10° 22:17:37 10° 300° (WNW) 1,876 6.4 -19.8°
Maximum altitude 22:21:53 78° 27° (NNE) 589 2.9 -20.2°
Enters shadow 22:23:05 46° 104° (ESE) 772 3.2 -20.3°
